Location: Batang Balui
(2.7000°N, 113.7833°E)
Time: 23:51:26
(UTC+00:00)

Cosmos 2228 Rocket - Pass Details

Date: 03 December 2021
Orbit: 618 x 651 km, 82.5° (Epoch: 27 January)

Event Time Altitude Azimuth Distance (km) Brightness Sun altitude
Rises 11:23:49 0° 179° (S) 2,903 6.8 -17.0°
Reaches altitude 10° 11:26:04 10° 177° (S) 1,991 5.9 -17.5°
Maximum altitude 11:30:27 68° 94° (E) 667 2.9 -18.5°
Enters shadow 11:32:40 28° 17° (NNE) 1,163 4.1 -19.0°
